Newton, KS

1:35 PM CST on November 20, 2019 (GMT -0600)
Newton City County

Weather History for KEWK - August, 2019

Change the Weather History Date:

Monday, August 5, 2019

  Actual Average Record
Temperature  
Mean Temperature 78 °F -  
Max Temperature 88 °F 86 °F 102 °F (2001)
Min Temperature 69 °F 66 °F 59 °F (2012)
Cooling Degree Days 14    
Growing Degree Days 28 (Base 50)    
Moisture  
Dew Point 71 °F    
Average Humidity 77    
Maximum Humidity 96    
Minimum Humidity 55    
Precipitation  
Precipitation 0.00 in - - ()
Sea Level Pressure  
Sea Level Pressure 29.97 in    
Wind  
Wind Speed 6 mph (SSE)    
Max Wind Speed 9 mph    
Max Gust Speed -    
Visibility 10 miles    
Events Thunderstorm    
Averages and records for this station are not official NWS values.
T = Trace of Precipitation, MM = Missing Value Source: NWS Daily Summary

Daily Weather History Graph

Daily Weather History Graph

Search for Another Location

Airport or City:

Astronomy

Aug. 05, 2019 Rise Set
Actual Time 6:35 AM CDT 8:34 PM CDT
Civil Twilight 6:06 AM CDT 9:03 PM CDT
Nautical Twilight 5:31 AM CDT 9:38 PM CDT
Astronomical Twilight 4:53 AM CDT 10:16 PM CDT
Moon 11:48 AM CDT (8/5) 11:52 PM CDT (8/5)
Length of Visible Light 14h 56m
Length of Day
13h 59m
Waxing Crescent, 28% of the Moon is Illuminated
Aug 5
Waxing Crescent
Aug 7
First Quarter
Aug 15
Full
Aug 23
Last Quarter
Aug 30
New

Hourly Weather History & Observations

Time (CDT) Temp. Heat Index Dew Point Humidity Pressure Visibility Wind Dir Wind Speed Gust Speed Precip Events Conditions
12:56 AM 73.0 °F - 70.0 °F 90% 30.01 in 10.0 mi ESE 5.8 mph - N/A   Clear
1:56 AM 72.0 °F - 70.0 °F 93% 30.00 in 10.0 mi SE 5.8 mph - N/A   Clear
2:56 AM 72.0 °F - 69.1 °F 91% 29.99 in 10.0 mi SSE 8.1 mph - N/A   Clear
3:56 AM 72.0 °F - 69.1 °F 91% 29.97 in 10.0 mi South 8.1 mph - N/A   Clear
4:56 AM 70.0 °F - 68.0 °F 93% 29.97 in 10.0 mi SSE 5.8 mph - N/A   Clear
5:56 AM 70.0 °F - 68.0 °F 93% 29.97 in 10.0 mi SSE 6.9 mph - N/A   Clear
6:56 AM 69.1 °F - 68.0 °F 96% 30.00 in 9.0 mi South 5.8 mph - N/A   Clear
7:56 AM 73.0 °F - 69.1 °F 87% 30.01 in 10.0 mi South 6.9 mph - N/A   Clear
8:56 AM 75.9 °F - 70.0 °F 82% 30.02 in 10.0 mi SSW 6.9 mph - N/A   Unknown
9:56 AM 81.0 °F 84.9 °F 71.1 °F 72% 30.02 in 10.0 mi SW 9.2 mph - N/A   Clear
10:56 AM 82.9 °F 88.0 °F 72.0 °F 69% 30.02 in 10.0 mi SW 3.5 mph - N/A   Clear
11:56 AM 84.0 °F 89.6 °F 72.0 °F 67% 30.00 in 10.0 mi SW 5.8 mph - N/A   Clear
12:56 PM 87.1 °F 93.6 °F 72.0 °F 61% 29.97 in 10.0 mi Variable 5.8 mph - N/A   Clear
1:56 PM 88.0 °F 94.7 °F 72.0 °F 59% 29.96 in 10.0 mi Variable 3.5 mph - N/A   Mostly Cloudy
2:56 PM 86.0 °F 92.2 °F 72.0 °F 63% 29.95 in 10.0 mi South 6.9 mph - N/A   Mostly Cloudy
3:56 PM 88.0 °F 92.9 °F 70.0 °F 55% 29.94 in 10.0 mi SE 3.5 mph - N/A   Unknown
4:56 PM 86.0 °F 91.5 °F 71.1 °F 61% 29.94 in 10.0 mi South 5.8 mph - N/A   Unknown
5:15 PM 84.2 °F 89.6 °F 71.6 °F 66% 29.99 in 10.0 mi SSE 5.8 mph - N/A Thunderstorm Unknown
5:30 PM 86.0 °F 91.8 °F 71.6 °F 62% 29.99 in 10.0 mi ESE 5.8 mph - N/A   Unknown
5:56 PM 86.0 °F 93.0 °F 73.0 °F 65% 29.94 in 10.0 mi ESE 8.1 mph - N/A   Unknown
6:56 PM 82.9 °F 88.0 °F 72.0 °F 69% 29.93 in 10.0 mi ESE 4.6 mph - N/A   Unknown
7:56 PM 81.0 °F 85.8 °F 73.0 °F 77% 29.92 in 10.0 mi ESE 5.8 mph - N/A   Unknown
8:56 PM 79.0 °F - 73.9 °F 84% 29.91 in 10.0 mi SE 4.6 mph - N/A   Unknown
9:56 PM 78.1 °F - 71.1 °F 79% 29.91 in 10.0 mi SSE 6.9 mph - N/A   Unknown
10:56 PM 77.0 °F - 72.0 °F 84% 29.92 in 10.0 mi South 6.9 mph - N/A   Unknown
11:56 PM 75.0 °F - 71.1 °F 87% 29.91 in 10.0 mi South 5.8 mph - N/A   Unknown